�������l�o���
Date,Time,MP-1(��Sv/h),MP-2(��Sv/h),MP-3(��Sv/h),MP-4(��Sv/h),MP-5(��Sv/h),MP-6(��Sv/h),MP-7(��Sv/h),MP-8(��Sv/h),����,����(m/s),���J
2023/02/26,00:00,0.564,0.820,0.501,1.048,0.730,0.322,0.583,0.554,�k��,5.9,��
2023/02/26,00:10,0.564,0.822,0.503,1.047,0.727,0.322,0.583,0.552,�k��,5.4,��
2023/02/26,00:20,0.563,0.821,0.503,1.050,0.730,0.320,0.583,0.553,�k��,3.6,��
2023/02/26,00:30,0.565,0.821,0.500,1.051,0.730,0.321,0.582,0.552,�k��,5.0,��
2023/02/26,00:40,0.563,0.824,0.501,1.048,0.730,0.321,0.583,0.553,�k�k��,4.9,��
2023/02/26,00:50,0.564,0.821,0.501,1.048,0.729,0.321,0.580,0.555,�k�k��,5.0,��
2023/02/26,01:00,0.564,0.821,0.500,1.051,0.731,0.322,0.580,0.553,�k�k��,5.3,��
2023/02/26,01:10,0.563,0.820,0.501,1.049,0.731,0.320,0.581,0.554,�k��,5.9,��
2023/02/26,01:20,0.563,0.823,0.501,1.047,0.728,0.322,0.582,0.553,�k�k��,5.7,��
2023/02/26,01:30,0.565,0.821,0.502,1.049,0.730,0.322,0.581,0.553,�k��,4.8,��
2023/02/26,01:40,0.563,0.821,0.501,1.049,0.730,0.323,0.582,0.553,�k��,4.3,��
2023/02/26,01:50,0.564,0.822,0.501,1.049,0.731,0.321,0.582,0.553,�k��,3.5,��
2023/02/26,02:00,0.564,0.822,0.500,1.051,0.730,0.322,0.581,0.553,�k��,5.1,��
2023/02/26,02:10,0.563,0.821,0.501,1.049,0.730,0.322,0.582,0.553,�k�k��,3.3,��
2023/02/26,02:20,0.566,0.819,0.500,1.048,0.728,0.322,0.583,0.552,�k�k��,3.1,��
2023/02/26,02:30,0.563,0.822,0.501,1.049,0.730,0.322,0.582,0.555,�k,3.8,��
2023/02/26,02:40,0.563,0.819,0.500,1.047,0.729,0.322,0.583,0.553,�k�k��,4.6,��
2023/02/26,02:50,0.565,0.821,0.501,1.048,0.730,0.321,0.583,0.553,�k��,4.8,��
2023/02/26,03:00,0.563,0.822,0.501,1.049,0.729,0.321,0.582,0.553,�k��,6.0,��
2023/02/26,03:10,0.562,0.822,0.501,1.047,0.729,0.321,0.582,0.552,�k��,6.1,��
2023/02/26,03:20,0.562,0.820,0.500,1.048,0.728,0.322,0.583,0.551,�k��,3.9,��
2023/02/26,03:30,0.562,0.821,0.500,1.047,0.729,0.321,0.580,0.555,�k��,4.7,��
2023/02/26,03:40,0.564,0.819,0.502,1.049,0.730,0.321,0.582,0.554,�k��,3.9,��
2023/02/26,03:50,0.564,0.821,0.500,1.048,0.730,0.323,0.581,0.553,�k��,4.4,��
2023/02/26,04:00,0.563,0.822,0.500,1.048,0.728,0.322,0.583,0.553,�k��,6.4,��
2023/02/26,04:10,0.564,0.820,0.499,1.048,0.729,0.323,0.582,0.553,�k��,8.3,��
2023/02/26,04:20,0.562,0.821,0.500,1.047,0.730,0.321,0.582,0.552,�k��,5.7,��
2023/02/26,04:30,0.563,0.821,0.501,1.049,0.729,0.321,0.581,0.553,���k��,4.7,��
2023/02/26,04:40,0.565,0.821,0.500,1.049,0.729,0.321,0.581,0.552,���k��,4.6,��
2023/02/26,04:50,0.562,0.820,0.499,1.051,0.729,0.322,0.580,0.552,���k��,5.5,��
2023/02/26,05:00,0.562,0.820,0.502,1.047,0.728,0.321,0.581,0.552,���k��,5.7,��
2023/02/26,05:10,0.563,0.820,0.501,1.047,0.728,0.322,0.579,0.553,���k��,3.2,��
2023/02/26,05:20,0.563,0.822,0.501,1.048,0.730,0.321,0.581,0.552,��,2.0,��
2023/02/26,05:30,0.562,0.820,0.500,1.047,0.729,0.321,0.581,0.553,���k��,5.2,��
2023/02/26,05:40,0.564,0.820,0.501,1.047,0.728,0.321,0.581,0.551,��,4.6,��
2023/02/26,05:50,0.564,0.820,0.500,1.047,0.727,0.320,0.582,0.553,��,4.2,��
2023/02/26,06:00,0.564,0.821,0.499,1.048,0.728,0.322,0.581,0.553,��,4.3,��
2023/02/26,06:10,0.564,0.820,0.500,1.047,0.729,0.322,0.580,0.553,���k��,6.3,��
2023/02/26,06:20,0.562,0.821,0.500,1.047,0.730,0.320,0.579,0.552,���k��,6.9,��
2023/02/26,06:30,0.562,0.820,0.500,1.048,0.728,0.321,0.579,0.553,���k��,7.4,��
2023/02/26,06:40,0.562,0.821,0.499,1.047,0.727,0.321,0.581,0.552,���k��,7.3,��
2023/02/26,06:50,0.563,0.821,0.501,1.049,0.728,0.321,0.581,0.552,���k��,7.2,��
2023/02/26,07:00,0.562,0.821,0.500,1.049,0.728,0.321,0.582,0.552,���k��,4.7,��
2023/02/26,07:10,0.565,0.820,0.500,1.047,0.729,0.321,0.580,0.551,��,4.3,��
2023/02/26,07:20,0.562,0.822,0.500,1.048,0.728,0.321,0.582,0.553,��,3.1,��
2023/02/26,07:30,0.561,0.821,0.501,1.049,0.728,0.321,0.582,0.552,��,2.9,��
2023/02/26,07:40,0.564,0.821,0.500,1.048,0.728,0.321,0.581,0.552,�쐼,2.8,��
2023/02/26,07:50,0.563,0.821,0.500,1.045,0.730,0.321,0.581,0.554,�쐼,2.9,��
2023/02/26,08:00,0.563,0.821,0.501,1.049,0.728,0.321,0.581,0.552,�쐼,2.0,��
2023/02/26,08:10,0.563,0.820,0.501,1.047,0.729,0.321,0.582,0.553,���k��,2.2,��
2023/02/26,08:20,0.565,0.820,0.500,1.048,0.728,0.321,0.580,0.554,���쐼,2.6,��
2023/02/26,08:30,0.564,0.821,0.500,1.048,0.728,0.322,0.580,0.553,��,4.0,��
2023/02/26,08:40,0.565,0.821,0.503,1.051,0.730,0.322,0.582,0.555,��,4.5,��
2023/02/26,08:50,0.564,0.821,0.501,1.049,0.729,0.321,0.581,0.553,��,3.9,��
2023/02/26,09:00,0.564,0.824,0.501,1.049,0.730,0.322,0.581,0.552,���k��,4.6,��
2023/02/26,09:10,0.565,0.822,0.504,1.047,0.730,0.320,0.582,0.555,��,4.1,��
2023/02/26,09:20,0.565,0.821,0.500,1.047,0.730,0.321,0.583,0.553,���k��,6.8,��
2023/02/26,09:30,0.565,0.823,0.502,1.050,0.730,0.322,0.582,0.554,��,5.7,��
2023/02/26,09:40,0.563,0.822,0.501,1.052,0.729,0.321,0.582,0.553,���k��,6.3,��
2023/02/26,09:50,0.564,0.822,0.502,1.049,0.731,0.322,0.582,0.553,��,5.0,��
2023/02/26,10:00,0.567,0.824,0.502,1.049,0.728,0.322,0.582,0.554,���k��,6.1,��
2023/02/26,10:10,0.565,0.821,0.501,1.050,0.728,0.322,0.581,0.555,�k��,5.4,��
2023/02/26,10:20,0.567,0.823,0.502,1.048,0.731,0.322,0.582,0.555,���k��,4.8,��
2023/02/26,10:30,0.567,0.823,0.503,1.051,0.732,0.322,0.580,0.553,�k��,4.8,��
2023/02/26,10:40,0.567,0.823,0.501,1.052,0.730,0.322,0.581,0.554,���k��,6.7,��
2023/02/26,10:50,0.566,0.822,0.503,1.048,0.731,0.323,0.580,0.555,���k��,6.1,��
2023/02/26,11:00,0.565,0.823,0.503,1.052,0.732,0.322,0.581,0.552,���k��,7.0,��
2023/02/26,11:10,0.565,0.822,0.503,1.050,0.732,0.322,0.581,0.554,�k��,6.1,��
2023/02/26,11:20,0.567,0.822,0.502,1.050,0.731,0.323,0.580,0.554,���k��,8.4,��
2023/02/26,11:30,0.568,0.823,0.504,1.049,0.730,0.321,0.582,0.555,���k��,4.5,�L
2023/02/26,11:40,0.565,0.823,0.504,1.051,0.731,0.322,0.581,0.555,���k��,6.2,��
2023/02/26,11:50,0.566,0.820,0.502,1.051,0.732,0.324,0.582,0.554,�k��,4.6,��
2023/02/26,12:00,0.566,0.823,0.503,1.052,0.731,0.323,0.583,0.556,��,4.4,��
2023/02/26,12:10,0.566,0.821,0.503,1.051,0.731,0.323,0.582,0.554,���k��,7.2,��
2023/02/26,12:20,0.566,0.822,0.503,1.052,0.731,0.322,0.582,0.556,��,8.6,��
2023/02/26,12:30,0.567,0.820,0.505,1.052,0.732,0.322,0.581,0.556,��,8.6,��
2023/02/26,12:40,0.568,0.821,0.503,1.051,0.729,0.322,0.581,0.557,��,5.8,��
2023/02/26,12:50,0.567,0.823,0.503,1.050,0.731,0.324,0.581,0.557,���k��,5.2,��
2023/02/26,13:00,0.566,0.823,0.504,1.051,0.731,0.322,0.581,0.555,��,4.7,��
2023/02/26,13:10,0.567,0.821,0.502,1.051,0.730,0.323,0.582,0.555,�k��,5.3,��
2023/02/26,13:20,0.568,0.825,0.505,1.051,0.730,0.325,0.583,0.555,���k��,4.3,��
2023/02/26,13:30,0.569,0.823,0.504,1.054,0.730,0.323,0.582,0.554,���k��,5.9,��
2023/02/26,13:40,0.567,0.822,0.503,1.051,0.730,0.323,0.581,0.555,��,8.8,��
2023/02/26,13:50,0.569,0.825,0.505,1.052,0.731,0.323,0.582,0.553,���k��,8.7,��
2023/02/26,14:00,0.569,0.824,0.504,1.053,0.733,0.324,0.582,0.553,��,9.3,��
2023/02/26,14:10,0.568,0.823,0.505,1.054,0.733,0.324,0.581,0.554,���k��,10.7,��
2023/02/26,14:20,0.567,0.824,0.504,1.053,0.732,0.323,0.582,0.553,���k��,8.6,��
2023/02/26,14:30,0.569,0.824,0.503,1.053,0.730,0.324,0.583,0.555,���k��,10.6,��
2023/02/26,14:40,0.569,0.825,0.502,1.053,0.730,0.324,0.582,0.553,���k��,10.0,��
2023/02/26,14:50,0.570,0.824,0.504,1.052,0.732,0.324,0.581,0.553,���k��,7.9,��
2023/02/26,15:00,0.566,0.824,0.502,1.051,0.732,0.323,0.583,0.555,��,8.9,��
2023/02/26,15:10,0.566,0.825,0.502,1.054,0.731,0.323,0.581,0.555,�k�k��,5.5,��
2023/02/26,15:20,0.566,0.823,0.503,1.052,0.732,0.322,0.583,0.554,�k��,7.9,��
2023/02/26,15:30,0.567,0.824,0.503,1.054,0.731,0.324,0.584,0.558,�k��,6.7,��
2023/02/26,15:40,0.565,0.822,0.505,1.052,0.734,0.323,0.583,0.558,�k��,5.0,��
2023/02/26,15:50,0.566,0.825,0.504,1.053,0.731,0.325,0.584,0.556,�k��,6.3,��
2023/02/26,16:00,0.566,0.825,0.505,1.051,0.731,0.322,0.583,0.557,�k��,6.6,��
2023/02/26,16:10,0.566,0.824,0.503,1.053,0.731,0.323,0.584,0.557,�k��,6.3,��
2023/02/26,16:20,0.568,0.826,0.504,1.053,0.733,0.323,0.586,0.557,�k��,7.8,��
2023/02/26,16:30,0.566,0.825,0.501,1.052,0.729,0.323,0.585,0.556,�k��,7.6,��
2023/02/26,16:40,0.566,0.825,0.504,1.053,0.730,0.324,0.583,0.557,�k��,6.7,��
2023/02/26,16:50,0.566,0.824,0.505,1.054,0.733,0.325,0.586,0.557,�k��,6.2,��
2023/02/26,17:00,0.567,0.824,0.502,1.053,0.733,0.323,0.584,0.556,�k��,5.4,��
2023/02/26,17:10,0.565,0.825,0.502,1.050,0.732,0.324,0.585,0.557,�k��,7.3,��
2023/02/26,17:20,0.567,0.825,0.504,1.054,0.734,0.323,0.585,0.555,�k��,6.2,��
2023/02/26,17:30,0.568,0.826,0.502,1.049,0.732,0.323,0.584,0.557,�k��,5.8,��
2023/02/26,17:40,0.565,0.825,0.504,1.051,0.734,0.321,0.584,0.556,�k��,4.9,��
2023/02/26,17:50,0.565,0.822,0.503,1.052,0.732,0.322,0.584,0.555,�k��,4.2,��
2023/02/26,18:00,0.567,0.824,0.504,1.049,0.734,0.323,0.584,0.555,�k��,4.8,��
2023/02/26,18:10,0.566,0.824,0.503,1.052,0.732,0.323,0.582,0.557,�k��,7.6,��
2023/02/26,18:20,0.568,0.823,0.503,1.051,0.732,0.321,0.583,0.555,�k��,8.0,��
2023/02/26,18:30,0.565,0.825,0.502,1.052,0.732,0.322,0.583,0.555,�k��,7.7,��
2023/02/26,18:40,0.566,0.825,0.504,1.052,0.733,0.322,0.584,0.556,�k��,7.0,��
2023/02/26,18:50,0.565,0.825,0.502,1.050,0.735,0.322,0.583,0.554,�k��,7.0,��
2023/02/26,19:00,0.566,0.823,0.502,1.052,0.733,0.322,0.584,0.555,�k��,7.0,��
2023/02/26,19:10,0.566,0.826,0.501,1.050,0.732,0.322,0.583,0.556,�k��,7.2,��
2023/02/26,19:20,0.567,0.825,0.502,1.051,0.734,0.320,0.583,0.554,���k��,7.4,��
2023/02/26,19:30,0.566,0.824,0.501,1.053,0.732,0.320,0.582,0.554,�k��,7.8,��
2023/02/26,19:40,0.566,0.825,0.502,1.052,0.733,0.321,0.584,0.555,�k��,8.7,��
2023/02/26,19:50,0.566,0.825,0.503,1.050,0.733,0.319,0.584,0.552,�k��,8.4,��
2023/02/26,20:00,0.567,0.824,0.503,1.053,0.734,0.322,0.584,0.555,�k��,8.1,��
2023/02/26,20:10,0.565,0.824,0.503,1.051,0.731,0.323,0.584,0.556,�k��,12.1,��
2023/02/26,20:20,0.566,0.825,0.503,1.053,0.733,0.323,0.584,0.554,�k��,12.4,��
2023/02/26,20:30,0.566,0.824,0.502,1.051,0.733,0.322,0.582,0.554,���k��,10.5,��
2023/02/26,20:40,0.565,0.825,0.501,1.052,0.732,0.322,0.583,0.554,�k��,9.1,��
2023/02/26,20:50,0.566,0.823,0.501,1.050,0.735,0.321,0.585,0.554,�k��,10.6,��
2023/02/26,21:00,0.564,0.824,0.501,1.051,0.734,0.321,0.584,0.554,���k��,10.2,��
2023/02/26,21:10,0.566,0.825,0.501,1.051,0.732,0.320,0.583,0.555,�k��,9.1,��
2023/02/26,21:20,0.565,0.824,0.500,1.052,0.732,0.320,0.585,0.554,�k��,11.6,��
2023/02/26,21:30,0.565,0.822,0.500,1.052,0.733,0.320,0.583,0.557,�k��,10.5,��
2023/02/26,21:40,0.564,0.823,0.500,1.052,0.732,0.322,0.583,0.554,�k��,9.2,��
2023/02/26,21:50,0.565,0.824,0.500,1.051,0.731,0.320,0.584,0.554,�k��,10.5,��
2023/02/26,22:00,0.564,0.824,0.501,1.052,0.733,0.321,0.584,0.556,�k��,10.2,��
2023/02/26,22:10,0.567,0.823,0.501,1.052,0.731,0.321,0.583,0.556,�k��,11.3,��
2023/02/26,22:20,0.565,0.824,0.502,1.050,0.732,0.320,0.582,0.555,�k��,8.6,��
2023/02/26,22:30,0.564,0.824,0.502,1.053,0.731,0.321,0.584,0.556,�k��,8.7,��
2023/02/26,22:40,0.564,0.821,0.502,1.054,0.733,0.322,0.584,0.556,�k��,12.7,��
2023/02/26,22:50,0.566,0.824,0.502,1.054,0.732,0.322,0.583,0.556,�k��,11.7,��
2023/02/26,23:00,0.566,0.823,0.503,1.051,0.732,0.322,0.582,0.555,���k��,8.7,��
2023/02/26,23:10,0.565,0.823,0.501,1.053,0.733,0.321,0.584,0.555,�k��,9.5,��
2023/02/26,23:20,0.564,0.823,0.500,1.051,0.733,0.321,0.584,0.556,�k��,12.2,��
2023/02/26,23:30,0.567,0.823,0.500,1.051,0.731,0.322,0.582,0.557,�k��,8.3,��
2023/02/26,23:40,0.565,0.823,0.501,1.052,0.732,0.322,0.583,0.555,�k��,8.6,��
2023/02/26,23:50,0.564,0.821,0.503,1.054,0.731,0.321,0.582,0.556,�k��,10.5,��
